Weather History for KMZG - February, 2014

Change the Weather History Date:

Sunday, February 2, 2014

  Actual Average Record
Temperature  
Mean Temperature 60 °F -  
Max Temperature 71 °F - - ()
Min Temperature 46 °F - - ()
Degree Days  
Heating Degree Days 6    
Growing Degree Days 10 (Base 50)    
Moisture  
Dew Point 60 °F    
Average Humidity 95    
Maximum Humidity 100    
Minimum Humidity 87    
Precipitation  
Precipitation 0.08 in - - ()
Sea Level Pressure  
Sea Level Pressure 29.90 in    
Wind  
Wind Speed 16 mph (ENE)    
Max Wind Speed 40 mph    
Max Gust Speed 48 mph    
Visibility 6 miles    
Events      
Averages and records for this station are not official NWS values.
T = Trace of Precipitation, MM = Missing Value Source: NWS Daily Summary

Daily Weather History Graph

Daily Weather History Graph

Search for Another Location

Airport or City:

Trip Planner

Search our weather history database for the weather conditions in past years. The results will help you decide how hot, cold, wet, or windy it might be!

Date:

Astronomy

Feb. 02, 2014 Rise Set
Actual Time 7:10 AM CST 6:06 PM CST
Civil Twilight 6:46 AM CST 6:30 PM CST
Nautical Twilight 6:18 AM CST 6:58 PM CST
Astronomical Twilight 5:50 AM CST 7:26 PM CST
Moon 8:59 AM CST (2/2) 9:27 PM CST (2/2)
Length of Visible Light 11h 44m
Length of Day
10h 55m
Waxing Crescent, 11% of the Moon is Illuminated
Feb 2
Waxing Crescent
Feb 6
First Quarter
Feb 14
Full
Feb 22
Last Quarter
Mar 1
New

Hourly Weather History & Observations

Time (CST) Temp. Windchill Dew Point Humidity Pressure Visibility Wind Dir Wind Speed Gust Speed Precip Events Conditions
12:15 AM 71.6 °F - 69.8 °F 94% 29.84 in 7.0 mi SE 5.8 mph 15.0 mph N/A   Unknown
12:35 AM 71.6 °F - 69.8 °F 94% 29.84 in 7.0 mi Variable 5.8 mph 16.1 mph N/A   Unknown
12:55 AM 71.6 °F - 69.8 °F 94% 29.84 in 7.0 mi SE 6.9 mph 15.0 mph N/A   Unknown
1:15 AM 71.6 °F - 69.8 °F 94% 29.84 in 7.0 mi SE 6.9 mph 12.7 mph N/A   Unknown
1:35 AM 71.6 °F - 69.8 °F 94% 29.84 in 7.0 mi SE 5.8 mph 12.7 mph N/A   Unknown
1:55 AM 71.6 °F - 69.8 °F 94% 29.84 in 8.0 mi SE 8.1 mph - N/A   Unknown
2:15 AM 71.6 °F - 69.8 °F 94% 29.83 in 8.0 mi ESE 6.9 mph 17.3 mph N/A   Unknown
2:35 AM 71.6 °F - 69.8 °F 94% 29.82 in 8.0 mi ESE 16.1 mph - N/A   Unknown
2:55 AM 71.6 °F - 69.8 °F 94% 29.81 in 7.0 mi ESE 16.1 mph - N/A   Unknown
3:15 AM 69.8 °F - 69.8 °F 100% 29.81 in 6.0 mi ESE 16.1 mph - N/A   Mist
3:35 AM 71.6 °F - 69.8 °F 94% 29.81 in 7.0 mi ESE 17.3 mph - N/A   Unknown
3:55 AM 69.8 °F - 69.8 °F 100% 29.81 in 7.0 mi ESE 19.6 mph - N/A   Unknown
4:15 AM 69.8 °F - 69.8 °F 100% 29.81 in 8.0 mi ESE 18.4 mph - N/A   Unknown
4:35 AM 71.6 °F - 69.8 °F 94% 29.81 in 8.0 mi ESE 11.5 mph 20.7 mph N/A   Unknown
4:55 AM 71.6 °F - 69.8 °F 94% 29.81 in 9.0 mi ESE 8.1 mph 16.1 mph N/A   Overcast
5:15 AM 71.6 °F - 69.8 °F 94% 29.81 in 8.0 mi ESE 12.7 mph - N/A   Overcast
5:35 AM 71.6 °F - 69.8 °F 94% 29.81 in 8.0 mi ESE 16.1 mph - N/A   Overcast
5:55 AM 71.6 °F - 69.8 °F 94% 29.82 in 8.0 mi ESE 15.0 mph - N/A   Overcast
6:15 AM 69.8 °F - 69.8 °F 100% 29.82 in 7.0 mi ESE 12.7 mph - N/A   Overcast
6:35 AM 69.8 °F - 69.8 °F 100% 29.82 in 6.0 mi ESE 11.5 mph - N/A   Overcast
6:55 AM 69.8 °F - 69.8 °F 100% 29.82 in 7.0 mi ESE 15.0 mph - N/A   Overcast
7:15 AM 69.8 °F - 69.8 °F 100% 29.83 in 6.0 mi ESE 12.7 mph - N/A   Overcast
7:35 AM 69.8 °F - 69.8 °F 100% 29.82 in 5.0 mi ESE 15.0 mph - N/A   Overcast
7:55 AM 69.8 °F - 69.8 °F 100% 29.82 in 5.0 mi ESE 13.8 mph - N/A   Overcast
8:15 AM 69.8 °F - 69.8 °F 100% 29.84 in 5.0 mi ESE 12.7 mph - N/A   Mostly Cloudy
8:35 AM 69.8 °F - 69.8 °F 100% 29.84 in 5.0 mi ESE 11.5 mph - N/A   Overcast
8:55 AM 71.6 °F - 69.8 °F 94% 29.85 in 5.0 mi ESE 13.8 mph - N/A   Mostly Cloudy
9:15 AM 71.6 °F - 69.8 °F 94% 29.85 in 5.0 mi ESE 12.7 mph - N/A   Scattered Clouds
9:35 AM 71.6 °F - 69.8 °F 94% 29.86 in 5.0 mi ESE 13.8 mph - N/A   Scattered Clouds
9:55 AM 71.6 °F - 69.8 °F 94% 29.86 in 6.0 mi ESE 15.0 mph - N/A   Scattered Clouds
10:15 AM 71.6 °F - 69.8 °F 94% 29.88 in - ESE 10.4 mph - N/A   Unknown
10:35 AM 71.6 °F - 69.8 °F 94% 29.88 in 6.0 mi ESE 8.1 mph - N/A   Scattered Clouds
10:55 AM 71.6 °F - 69.8 °F 94% 29.89 in 6.0 mi ESE 9.2 mph - N/A   Scattered Clouds
11:15 AM 71.6 °F - 69.8 °F 94% 29.89 in 6.0 mi ESE 9.2 mph - N/A   Partly Cloudy
11:35 AM 71.6 °F - 69.8 °F 94% 29.88 in 5.0 mi ESE 10.4 mph - N/A   Clear
11:55 AM 71.6 °F - 69.8 °F 94% 29.87 in 5.0 mi ESE 10.4 mph - N/A   Partly Cloudy
12:15 PM 71.6 °F - 69.8 °F 94% 29.86 in 5.0 mi ESE 9.2 mph - N/A   Scattered Clouds
12:35 PM 71.6 °F - 69.8 °F 94% 29.86 in 5.0 mi East 5.8 mph - N/A   Mostly Cloudy
12:55 PM 66.2 °F - 64.4 °F 94% 29.86 in 3.0 mi North 20.7 mph - N/A   Mostly Cloudy
1:15 PM 59.0 °F - 57.2 °F 94% 29.84 in 1.0 mi North 26.5 mph 35.7 mph N/A   Overcast
1:35 PM 55.4 °F - 55.4 °F 100% 29.85 in 4.0 mi North 25.3 mph 32.2 mph N/A   Overcast
1:55 PM 53.6 °F - 53.6 °F 100% 29.85 in 4.0 mi NNW 34.5 mph 41.4 mph 0.04 in   Overcast
2:15 PM 53.6 °F - 51.8 °F 94% 29.86 in 1.0 mi NNW 33.4 mph - N/A   Overcast
2:35 PM 51.8 °F - 51.8 °F 100% 29.87 in 3.0 mi NNW 35.7 mph - N/A   Overcast
2:55 PM 50.0 °F - 50.0 °F 100% 29.87 in 1.0 mi NNW 34.5 mph - 0.03 in   Overcast
3:15 PM 50.0 °F - 50.0 °F 100% 29.89 in 3.0 mi NNW 32.2 mph 38.0 mph N/A   Overcast
3:35 PM 50.0 °F - 50.0 °F 100% 29.88 in 5.0 mi North 31.1 mph 38.0 mph N/A   Overcast
3:55 PM 50.0 °F - 50.0 °F 100% 29.89 in 7.0 mi NNW 33.4 mph - 0.01 in   Overcast
4:15 PM 50.0 °F - 50.0 °F 100% 29.90 in 8.0 mi NNW 31.1 mph 39.1 mph N/A   Overcast
4:35 PM 50.0 °F - 50.0 °F 100% 29.91 in 4.0 mi NNW 38.0 mph 43.7 mph N/A   Overcast
4:55 PM 48.2 °F - 48.2 °F 100% 29.93 in 5.0 mi NNW 40.3 mph 47.2 mph N/A   Overcast
5:15 PM 48.2 °F - 48.2 °F 100% 29.94 in 5.0 mi NNW 36.8 mph 44.9 mph N/A   Overcast
5:35 PM 48.2 °F - 48.2 °F 100% 29.96 in 3.0 mi NNW 38.0 mph - N/A   Overcast
5:55 PM 48.2 °F - 48.2 °F 100% 29.97 in 3.0 mi NNW 36.8 mph 46.0 mph N/A   Overcast
6:15 PM 48.2 °F - 46.4 °F 93% 29.98 in 7.0 mi NNW 39.1 mph 48.3 mph N/A   Overcast
6:35 PM 48.2 °F - 46.4 °F 93% 29.98 in 7.0 mi North 35.7 mph 44.9 mph N/A   Overcast
6:55 PM 48.2 °F - 46.4 °F 93% 29.99 in 8.0 mi North 31.1 mph 41.4 mph N/A   Overcast
7:15 PM 48.2 °F - 46.4 °F 93% 30.01 in 7.0 mi North 29.9 mph 42.6 mph N/A   Overcast
7:35 PM 48.2 °F - 46.4 °F 93% 30.03 in 6.0 mi North 27.6 mph 39.1 mph N/A   Overcast
7:55 PM 48.2 °F - 46.4 °F 93% 30.03 in 9.0 mi North 32.2 mph - N/A   Overcast
8:15 PM 50.0 °F - 46.4 °F 87% 30.04 in 9.0 mi North 35.7 mph - N/A   Overcast
8:35 PM 48.2 °F - 46.4 °F 93% 30.06 in 9.0 mi North 27.6 mph 40.3 mph N/A   Overcast
8:55 PM 48.2 °F - 44.6 °F 87% 30.07 in 10.0 mi North 29.9 mph 38.0 mph N/A   Overcast
9:15 PM 48.2 °F - 44.6 °F 87% 30.07 in 9.0 mi North 32.2 mph 40.3 mph N/A   Overcast
9:35 PM 48.2 °F - 44.6 °F 87% 30.08 in 9.0 mi North 32.2 mph - N/A   Overcast
9:55 PM 48.2 °F - 44.6 °F 87% 30.08 in 8.0 mi North 28.8 mph 38.0 mph N/A   Overcast
10:15 PM 48.2 °F - 44.6 °F 87% 30.08 in 10.0 mi North 29.9 mph 40.3 mph N/A   Overcast
10:35 PM 48.2 °F - 44.6 °F 87% 30.09 in 10.0 mi North 28.8 mph 36.8 mph N/A   Overcast
10:55 PM 48.2 °F - 44.6 °F 87% 30.10 in 10.0 mi North 29.9 mph 36.8 mph N/A   Overcast
11:15 PM 48.2 °F - 44.6 °F 87% 30.10 in 10.0 mi North 31.1 mph 36.8 mph N/A   Overcast
11:35 PM 48.2 °F - 44.6 °F 87% 30.10 in 10.0 mi North 31.1 mph - N/A   Overcast
11:55 PM 46.4 °F 37.4 °F 42.8 °F 87% 30.10 in 10.0 mi North 28.8 mph 35.7 mph N/A   Overcast